• în România
  • Lista ţărilor
  • Pe 7 zile
  • Temperatura apei
  • Hartă satelitară
  • Meteo pe hartă
  • Widget-uri
  • user-avatar
    Intrare

    Meteo pe oră la Lubango

    Astăzi, 26 Iulie, Miercuri

    Timp Temperatura Precipitaţii Vânt Presiune Umiditate
    00:00 +12°C° 0 mm 1 m/s 609 mmHg 50%
    01:00 +11°C° 0 mm 1 m/s 609 mmHg 48%
    02:00 +11°C° 0 mm 1 m/s 609 mmHg 47%
    03:00 +11°C° 0 mm 1 m/s 609 mmHg 45%
    04:00 +11°C° 0 mm 1 m/s 608 mmHg 43%
    05:00 +11°C° 0 mm 1 m/s 608 mmHg 41%
    06:00 +11°C° 0 mm 1 m/s 608 mmHg 38%
    07:00 +11°C° 0 mm 1 m/s 609 mmHg 32%
    08:00 +15°C° 0 mm 2 m/s 611 mmHg 26%
    09:00 +19°C° 0 mm 2 m/s 612 mmHg 21%
    10:00 +22°C° 0 mm 3 m/s 614 mmHg 16%
    11:00 +24°C° 0 mm 3 m/s 614 mmHg 15%
    12:00 +26°C° 0 mm 2 m/s 614 mmHg 14%
    13:00 +26°C° 0 mm 2 m/s 614 mmHg 15%
    14:00 +26°C° 0 mm 2 m/s 613 mmHg 16%
    15:00 +26°C° 0 mm 2 m/s 613 mmHg 17%
    16:00 +25°C° 0 mm 2 m/s 612 mmHg 18%
    17:00 +21°C° 0 mm 2 m/s 611 mmHg 28%
    18:00 +18°C° 0 mm 2 m/s 610 mmHg 37%
    19:00 +15°C° 0 mm 1 m/s 609 mmHg 47%
    20:00 +14°C° 0 mm 1 m/s 609 mmHg 50%
    21:00 +13°C° 0 mm 1 m/s 609 mmHg 54%
    22:00 +12°C° 0 mm 1 m/s 610 mmHg 57%
    23:00 +12°C° 0 mm 1 m/s 609 mmHg 55%

    Mâine, 27 Iulie, Joi

    Timp Temperatura Precipitaţii Vânt Presiune Umiditate
    00:00 +12°C° 0 mm 1 m/s 609 mmHg 52%
    01:00 +12°C° 0 mm 1 m/s 609 mmHg 50%
    02:00 +11°C° 0 mm 1 m/s 609 mmHg 47%
    03:00 +11°C° 0 mm 1 m/s 609 mmHg 44%
    04:00 +11°C° 0 mm 1 m/s 608 mmHg 40%
    05:00 +11°C° 0 mm 1 m/s 609 mmHg 38%
    06:00 +10°C° 0 mm 2 m/s 609 mmHg 36%
    07:00 +10°C° 0 mm 2 m/s 609 mmHg 33%
    08:00 +15°C° 0 mm 2 m/s 610 mmHg 28%
    09:00 +18°C° 0 mm 3 m/s 612 mmHg 23%
    10:00 +22°C° 0 mm 4 m/s 614 mmHg 18%
    11:00 +25°C° 0 mm 3 m/s 614 mmHg 16%
    12:00 +26°C° 0 mm 3 m/s 614 mmHg 14%
    13:00 +27°C° 0 mm 3 m/s 613 mmHg 12%
    14:00 +27°C° 0 mm 3 m/s 613 mmHg 12%
    15:00 +27°C° 0 mm 2 m/s 613 mmHg 12%
    16:00 +27°C° 0 mm 2 m/s 612 mmHg 13%
    17:00 +24°C° 0 mm 2 m/s 611 mmHg 19%
    18:00 +20°C° 0 mm 2 m/s 610 mmHg 25%
    19:00 +16°C° 0 mm 1 m/s 610 mmHg 32%
    20:00 +15°C° 0 mm 1 m/s 610 mmHg 35%
    21:00 +14°C° 0 mm 1 m/s 610 mmHg 39%
    22:00 +13°C° 0 mm 1 m/s 610 mmHg 42%
    23:00 +13°C° 0 mm 1 m/s 610 mmHg 42%

    Poimâine, 28 Iulie, Vineri

    Timp Temperatura Precipitaţii Vânt Presiune Umiditate
    00:00 +13°C° 0 mm 1 m/s 610 mmHg 41%
    01:00 +13°C° 0 mm 1 m/s 610 mmHg 41%
    02:00 +12°C° 0 mm 1 m/s 609 mmHg 40%
    03:00 +12°C° 0 mm 1 m/s 609 mmHg 40%
    04:00 +12°C° 0 mm 1 m/s 608 mmHg 39%
    05:00 +12°C° 0 mm 1 m/s 609 mmHg 37%
    06:00 +12°C° 0 mm 2 m/s 609 mmHg 35%
    07:00 +12°C° 0 mm 2 m/s 609 mmHg 34%
    08:00 +16°C° 0 mm 2 m/s 611 mmHg 28%
    09:00 +19°C° 0 mm 3 m/s 613 mmHg 21%
    10:00 +23°C° 0 mm 4 m/s 614 mmHg 15%
    11:00 +26°C° 0 mm 4 m/s 614 mmHg 14%
    12:00 +27°C° 0 mm 3 m/s 614 mmHg 13%
    13:00 +28°C° 0 mm 3 m/s 614 mmHg 11%
    14:00 +28°C° 0 mm 3 m/s 613 mmHg 11%
    15:00 +28°C° 0 mm 3 m/s 613 mmHg 11%
    16:00 +28°C° 0 mm 2 m/s 612 mmHg 11%
    17:00 +25°C° 0 mm 2 m/s 611 mmHg 16%
    18:00 +21°C° 0 mm 2 m/s 611 mmHg 20%
    19:00 +18°C° 0 mm 1 m/s 610 mmHg 24%
    20:00 +16°C° 0 mm 1 m/s 610 mmHg 26%
    21:00 +16°C° 0 mm 1 m/s 610 mmHg 28%
    22:00 +15°C° 0 mm 1 m/s 610 mmHg 30%
    23:00 +14°C° 0 mm 1 m/s 610 mmHg 29%

    29 Iulie, Sâmbătă

    Timp Temperatura Precipitaţii Vânt Presiune Umiditate
    00:00 +14°C° 0 mm 2 m/s 610 mmHg 28%
    01:00 +14°C° 0 mm 2 m/s 609 mmHg 27%
    02:00 +13°C° 0 mm 2 m/s 609 mmHg 27%
    03:00 +13°C° 0 mm 2 m/s 609 mmHg 27%
    04:00 +13°C° 0 mm 2 m/s 609 mmHg 27%
    05:00 +13°C° 0 mm 2 m/s 609 mmHg 28%
    06:00 +13°C° 0 mm 2 m/s 609 mmHg 29%
    07:00 +12°C° 0 mm 3 m/s 610 mmHg 29%
    08:00 +16°C° 0 mm 3 m/s 611 mmHg 25%
    09:00 +20°C° 0 mm 4 m/s 613 mmHg 21%
    10:00 +23°C° 0 mm 4 m/s 614 mmHg 16%
    11:00 +26°C° 0 mm 4 m/s 614 mmHg 15%
    12:00 +27°C° 0 mm 3 m/s 614 mmHg 13%
    13:00 +28°C° 0 mm 3 m/s 614 mmHg 12%
    14:00 +28°C° 0 mm 3 m/s 613 mmHg 11%
    15:00 +28°C° 0 mm 3 m/s 613 mmHg 11%
    16:00 +28°C° 0 mm 3 m/s 613 mmHg 11%
    17:00 +25°C° 0 mm 2 m/s 612 mmHg 17%
    18:00 +20°C° 0 mm 2 m/s 611 mmHg 22%
    19:00 +18°C° 0 mm 1 m/s 610 mmHg 28%
    20:00 +16°C° 0 mm 1 m/s 610 mmHg 29%
    21:00 +15°C° 0 mm 1 m/s 610 mmHg 30%
    22:00 +14°C° 0 mm 1 m/s 610 mmHg 31%
    23:00 +14°C° 0 mm 2 m/s 610 mmHg 30%

    30 Iulie, Duminică

    Timp Temperatura Precipitaţii Vânt Presiune Umiditate
    00:00 +13°C° 0 mm 2 m/s 610 mmHg 28%
    01:00 +13°C° 0 mm 2 m/s 609 mmHg 27%
    02:00 +12°C° 0 mm 2 m/s 609 mmHg 27%
    03:00 +12°C° 0 mm 2 m/s 609 mmHg 28%
    04:00 +12°C° 0 mm 2 m/s 608 mmHg 28%
    05:00 +12°C° 0 mm 2 m/s 609 mmHg 29%
    06:00 +12°C° 0 mm 2 m/s 609 mmHg 30%
    07:00 +10°C° 0 mm 2 m/s 609 mmHg 31%
    08:00 +14°C° 0 mm 3 m/s 611 mmHg 26%
    09:00 +19°C° 0 mm 3 m/s 612 mmHg 21%
    10:00 +22°C° 0 mm 3 m/s 614 mmHg 17%
    11:00 +25°C° 0 mm 3 m/s 614 mmHg 14%
    12:00 +27°C° 0 mm 2 m/s 614 mmHg 12%
    13:00 +29°C° 0 mm 1 m/s 614 mmHg 10%
    14:00 +29°C° 0 mm 2 m/s 613 mmHg 10%
    15:00 +28°C° 0 mm 2 m/s 613 mmHg 10%
    16:00 +28°C° 0 mm 2 m/s 612 mmHg 10%
    17:00 +24°C° 0 mm 2 m/s 611 mmHg 16%
    18:00 +20°C° 0 mm 2 m/s 610 mmHg 22%
    19:00 +16°C° 0 mm 2 m/s 610 mmHg 28%
    20:00 +15°C° 0 mm 1 m/s 610 mmHg 33%
    21:00 +14°C° 0 mm 1 m/s 609 mmHg 37%
    22:00 +13°C° 0 mm 1 m/s 609 mmHg 42%
    23:00 +13°C° 0 mm 1 m/s 609 mmHg 41%

    31 Iulie, Luni

    Timp Temperatura Precipitaţii Vânt Presiune Umiditate
    00:00 +13°C° 0 mm 1 m/s 609 mmHg 41%
    01:00 +12°C° 0 mm 1 m/s 609 mmHg 40%
    02:00 +12°C° 0 mm 1 m/s 609 mmHg 39%
    03:00 +12°C° 0 mm 1 m/s 608 mmHg 38%
    04:00 +11°C° 0 mm 1 m/s 608 mmHg 36%
    05:00 +11°C° 0 mm 1 m/s 608 mmHg 36%
    06:00 +11°C° 0 mm 1 m/s 609 mmHg 35%
    07:00 +11°C° 0 mm 1 m/s 609 mmHg 35%
    08:00 +15°C° 0 mm 2 m/s 611 mmHg 29%
    09:00 +19°C° 0 mm 2 m/s 612 mmHg 22%
    10:00 +24°C° 0 mm 3 m/s 614 mmHg 16%
    11:00 +26°C° 0 mm 3 m/s 614 mmHg 14%
    12:00 +28°C° 0 mm 2 m/s 614 mmHg 13%
    13:00 +29°C° 0 mm 2 m/s 614 mmHg 11%
    14:00 +29°C° 0 mm 2 m/s 613 mmHg 12%
    15:00 +28°C° 0 mm 2 m/s 612 mmHg 12%
    16:00 +28°C° 0 mm 2 m/s 612 mmHg 13%
    17:00 +24°C° 0 mm 2 m/s 611 mmHg 20%
    18:00 +20°C° 0 mm 2 m/s 610 mmHg 27%
    19:00 +16°C° 0 mm 1 m/s 609 mmHg 34%
    20:00 +15°C° 0 mm 1 m/s 609 mmHg 38%
    21:00 +14°C° 0 mm 1 m/s 609 mmHg 41%
    22:00 +13°C° 0 mm 1 m/s 609 mmHg 45%
    23:00 +13°C° 0 mm 1 m/s 609 mmHg 45%
    Arată mai mult